Regional Weather Roundup
Issued by NWS Charleston, WV

Home | Current Version | Previous Version | Text Only | Print | Product List | Glossary On
Versions: 1 2 3 4 5 6 7 8 9 10 11 12 13 14 15 16 17 18 19 20 21 22 23 24 25 26 27
000
ASUS41 KRLX 062010
RWRRLX
West Virginia Regional Weather Roundup
National Weather Service Charleston WV
400 PM EDT FRI MAY 06 2016

Note: "fair" indicates few or no clouds below 12,000 feet with no
significant weather and/or obstructions to visibility.

WVZ003-062100-
Northern Panhandle of West Virginia

CITY           SKY/WX    TMP DP  RH WIND       PRES   REMARKS
WHEELING         N/A     66  32  28 NW23G33   29.75F
$$

WVZ009-062100-
Northwest West Virginia

CITY           SKY/WX    TMP DP  RH WIND       PRES   REMARKS
PARKERSBURG    PTSUNNY   69  38  32 N8G20     29.81F
$$

WVZ006-062100-
Western West Virginia

CITY           SKY/WX    TMP DP  RH WIND       PRES   REMARKS
HUNTINGTON     PTSUNNY   67  42  40 NW6       29.85F
$$

WVZ015-062100-
West Central West Virginia

CITY           SKY/WX    TMP DP  RH WIND       PRES   REMARKS
CHARLESTON     PTSUNNY   66  39  37 NW12G28   29.81F
$$

WVZ022-031-062100-
North Central West Virginia

CITY           SKY/WX    TMP DP  RH WIND       PRES   REMARKS
CLARKSBURG     CLOUDY    63  36  36 N13       29.73F
MORGANTOWN     CLOUDY    63  36  36 N14       29.74F
$$

WVZ025-035-042-045-062100-
Southern West Virginia

CITY           SKY/WX    TMP DP  RH WIND       PRES   REMARKS
BECKLEY        PTSUNNY   60  39  45 N15G21    29.80F
LOGAN          NOT AVBL
BLUEFIELD      CLOUDY    49  43  80 W9        29.85F
LEWISBURG      CLOUDY    56  40  53 NW9       29.78F
$$

WVZ047-062100-
Northern Mountains of West Virginia

CITY           SKY/WX    TMP DP  RH WIND       PRES   REMARKS
ELKINS         CLOUDY    58  37  45 NW8G22    29.74F
$$

WVZ052-062100-
Eastern Panhandle of West Virginia

CITY           SKY/WX    TMP DP  RH WIND       PRES   REMARKS
MARTINSBURG    LGT RAIN  51  47  86 NW13      29.70F
PETERSBURG     LGT RAIN  55  51  88 CALM      29.75S
$$




USA.gov is the U.S. government's official web portal to all federal, state and local government web resources and services.